Find Starlink 4044

NORAD ID: 52662 Int'l Des: 2022-053 Owner: SPXS Country: US Constellation: starlink operational
LEOCIRCULAR

リアルタイム位置

3D地球を読み込み中...

Starlink 4044について

説明を読み込み中...

次回通過

Passes for default location (London). Set your location on the main map for personalized predictions.

高度履歴

Loading altitude history...

軌道要素

1 52662U 22053G 26124.64937003 .00001048 00000-0 83964-4 0 9997
2 52662 53.2173 262.9062 0001418 99.1711 260.9442 15.08835231219491
Epoch: May 4, 2026 • Age: 15 hours

現在のステータス

高度 545.4 km
速度 7.60 km/s
衛星直下点 53.09°N, 24.82°E
打ち上げ日 May 18, 2022
運用期間 3.9 years
タイプ internet

技術仕様

分類 Payload
質量 297.00 kg
乾燥質量 275.00 kg
総質量 297.00 kg
長さ 0.20 m
直径 2.80 m
スパン 9.00 m
形状 Box + pan
製造者 SPXS
バスタイプ Starlink
フェーズステータス In Orbit
所有者/国 SPXS/US

Most Searched